| time (UTC) | temp F | wind direction | speed knots | gust knots | rain 1hr in | rain 24hr in | rain mn in | humidity % | barometer mb |
| 20260504000336 | 58 | 0.0 | 0.0 | 0.00 | 0.00 | 0.00 | 69 | 948.7 | |
| 20260504000036 | 58 | 0.0 | 0.0 | 0.00 | 0.00 | 0.00 | 69 | 948.7 | |
| 20260503235436 | 58 | 0.0 | 0.0 | 0.00 | 0.00 | 0.00 | 69 | 948.7 | |
| 20260503235136 | 58 | 0.0 | 0.0 | 0.00 | 0.00 | 0.00 | 67 | 948.0 | |
| 20260503234236 | 58 | 0.0 | 0.0 | 0.00 | 0.00 | 0.00 | 67 | 948.0 | |
| 20260503233636 | 58 | 0.0 | 0.0 | 0.00 | 0.00 | 0.00 | 67 | 948.0 | |
| 20260503233336 | 58 | 0.0 | 0.0 | 0.00 | 0.00 | 0.00 | 67 | 948.0 | |
| 20260503233036 | 58 | 0.0 | 0.0 | 0.00 | 0.00 | 0.00 | 67 | 948.0 | |
| 20260503232136 | 59 | 0.0 | 0.0 | 0.00 | 0.00 | 0.00 | 65 | 948.7 | |
| 20260503231836 | 59 | 0.0 | 0.0 | 0.00 | 0.00 | 0.00 | 65 | 948.7 | |
| 20260503231536 | 59 | 0.0 | 0.0 | 0.00 | 0.00 | 0.00 | 65 | 948.7 | |
| 20260503231235 | 59 | 0.0 | 0.0 | 0.00 | 0.00 | 0.00 | 65 | 948.7 | |
| 20260503230936 | 59 | 0.0 | 0.0 | 0.00 | 0.00 | 0.00 | 65 | 948.7 | |
| 20260503230635 | 59 | 0.0 | 0.0 | 0.00 | 0.00 | 0.00 | 65 | 948.7 | |
| 20260503230336 | 59 | 0.0 | 0.0 | 0.00 | 0.00 | 0.00 | 65 | 948.7 | |
| 20260503225735 | 59 | 0.0 | 0.0 | 0.00 | 0.00 | 0.00 | 67 | 948.0 | |
| 20260503225436 | 59 | 0.0 | 0.0 | 0.00 | 0.00 | 0.00 | 63 | 948.6 | |
| 20260503225136 | 59 | 0.0 | 0.0 | 0.00 | 0.00 | 0.00 | 63 | 948.6 | |
| 20260503224836 | 59 | 0.0 | 0.0 | 0.00 | 0.00 | 0.00 | 63 | 948.6 | |
| 20260503224536 | 59 | 0.0 | 0.0 | 0.00 | 0.00 | 0.00 | 63 | 948.6 | |
| 20260503223936 | 59 | 0.0 | 0.0 | 0.00 | 0.00 | 0.00 | 63 | 948.6 | |
| 20260503223036 | 59 | 0.0 | 0.0 | 0.00 | 0.00 | 0.00 | 63 | 948.6 | |
| 20260503222735 | 59 | 0.0 | 0.0 | 0.00 | 0.00 | 0.00 | 63 | 948.6 | |
| 20260503222436 | 59 | 0.0 | 0.0 | 0.00 | 0.00 | 0.00 | 63 | 948.6 | |
| 20260503222136 | 59 | 0.0 | 0.0 | 0.00 | 0.00 | 0.00 | 63 | 948.6 | |
| 20260503221836 | 59 | 0.0 | 0.0 | 0.00 | 0.00 | 0.00 | 63 | 948.6 | |
| 20260503221536 | 59 | 0.0 | 0.0 | 0.00 | 0.00 | 0.00 | 63 | 948.6 | |
| 20260503220935 | 59 | 0.0 | 0.0 | 0.00 | 0.00 | 0.00 | 63 | 948.6 | |
| 20260503220635 | 59 | 0.0 | 0.0 | 0.00 | 0.00 | 0.00 | 61 | 948.8 | |
| 20260503220336 | 59 | 0.0 | 0.0 | 0.00 | 0.00 | 0.00 | 61 | 948.8 | |
| 20260503220036 | 59 | 0.0 | 0.0 | 0.00 | 0.00 | 0.00 | 61 | 948.8 | |
| 20260503215735 | 59 | 0.0 | 0.0 | 0.00 | 0.00 | 0.00 | 61 | 948.8 | |
| 20260503215436 | 59 | 0.0 | 0.0 | 0.00 | 0.00 | 0.00 | 61 | 948.8 | |
| 20260503215136 | 59 | 0.0 | 0.0 | 0.00 | 0.00 | 0.00 | 61 | 948.8 | |
| 20260503214835 | 59 | 0.0 | 0.0 | 0.00 | 0.00 | 0.00 | 61 | 948.8 | |
| 20260503214536 | 59 | 0.0 | 0.0 | 0.00 | 0.00 | 0.00 | 61 | 948.8 | |
| 20260503214235 | 59 | 0.0 | 0.0 | 0.00 | 0.00 | 0.00 | 61 | 948.8 | |
| 20260503213936 | 59 | 0.0 | 0.0 | 0.00 | 0.00 | 0.00 | 61 | 948.8 | |
| 20260503213636 | 59 | 0.0 | 0.0 | 0.00 | 0.00 | 0.00 | 61 | 948.8 | |
| 20260503213336 | 59 | 0.0 | 0.0 | 0.00 | 0.00 | 0.00 | 61 | 948.8 | |
| 20260503213036 | 59 | 0.0 | 0.0 | 0.00 | 0.00 | 0.00 | 61 | 948.8 | |
| 20260503212736 | 59 | 0.0 | 0.0 | 0.00 | 0.00 | 0.00 | 61 | 948.8 | |
| 20260503212435 | 59 | 0.0 | 0.0 | 0.00 | 0.00 | 0.00 | 61 | 948.8 | |
| 20260503212135 | 59 | 0.0 | 0.0 | 0.00 | 0.00 | 0.00 | 61 | 948.8 | |
| 20260503211536 | 59 | 0.0 | 0.0 | 0.00 | 0.00 | 0.00 | 61 | 948.8 | |
| 20260503210935 | 59 | 0.0 | 0.0 | 0.00 | 0.00 | 0.00 | 61 | 948.0 | |
| 20260503210336 | 60 | 0.0 | 0.0 | 0.00 | 0.00 | 0.00 | 59 | 948.0 | |
| 20260503210036 | 60 | 0.0 | 0.0 | 0.00 | 0.00 | 0.00 | 59 | 948.0 | |
| 20260503205736 | 60 | 0.0 | 0.0 | 0.00 | 0.00 | 0.00 | 59 | 948.0 | |
| 20260503205436 | 60 | 0.0 | 0.0 | 0.00 | 0.00 | 0.00 | 59 | 948.0 | |
| 20260503205135 | 60 | 0.0 | 0.0 | 0.00 | 0.00 | 0.00 | 59 | 948.0 | |
| 20260503204836 | 61 | 0.0 | 0.0 | 0.00 | 0.00 | 0.00 | 60 | 948.0 | |
| 20260503204535 | 61 | 0.0 | 0.0 | 0.00 | 0.00 | 0.00 | 60 | 948.0 | |
| 20260503204236 | 61 | 0.0 | 0.0 | 0.00 | 0.00 | 0.00 | 60 | 948.0 | |
| 20260503203936 | 61 | 0.0 | 0.0 | 0.00 | 0.00 | 0.00 | 60 | 948.0 | |
| 20260503203636 | 61 | 0.0 | 0.0 | 0.00 | 0.00 | 0.00 | 60 | 948.0 | |
| 20260503203335 | 61 | 0.0 | 0.0 | 0.00 | 0.00 | 0.00 | 60 | 948.0 | |
| 20260503203036 | 61 | 0.0 | 0.0 | 0.00 | 0.00 | 0.00 | 60 | 948.0 | |
| 20260503202736 | 61 | 0.0 | 0.0 | 0.00 | 0.00 | 0.00 | 60 | 948.0 | |
| 20260503202436 | 61 | 0.0 | 0.0 | 0.00 | 0.00 | 0.00 | 60 | 948.0 | |
| 20260503202135 | 61 | 0.0 | 0.0 | 0.00 | 0.00 | 0.00 | 60 | 948.0 | |
| 20260503201835 | 61 | 0.0 | 0.0 | 0.00 | 0.00 | 0.00 | 60 | 947.0 | |
| 20260503201536 | 61 | 0.0 | 0.0 | 0.00 | 0.00 | 0.00 | 60 | 947.0 | |
| 20260503201236 | 61 | 0.0 | 0.0 | 0.00 | 0.00 | 0.00 | 60 | 947.0 | |
| 20260503200936 | 61 | 0.0 | 0.0 | 0.00 | 0.00 | 0.00 | 60 | 947.0 | |
| 20260503200636 | 61 | 0.0 | 0.0 | 0.00 | 0.00 | 0.00 | 62 | 947.0 | |
| 20260503200036 | 61 | 0.0 | 0.0 | 0.00 | 0.00 | 0.00 | 62 | 947.0 | |
| 20260503195436 | 60 | 0.0 | 0.0 | 0.00 | 0.00 | 0.00 | 58 | 947.0 | |
| 20260503195136 | 60 | 0.0 | 0.0 | 0.00 | 0.00 | 0.00 | 58 | 947.0 | |
| 20260503194835 | 60 | 0.0 | 0.0 | 0.00 | 0.00 | 0.00 | 58 | 947.0 | |
| 20260503194536 | 60 | 0.0 | 0.0 | 0.00 | 0.00 | 0.00 | 58 | 947.0 | |
| 20260503194236 | 60 | 0.0 | 0.0 | 0.00 | 0.00 | 0.00 | 58 | 947.0 | |
| 20260503193936 | 60 | 0.0 | 0.0 | 0.00 | 0.00 | 0.00 | 58 | 947.0 | |
| 20260503193636 | 60 | 0.0 | 0.0 | 0.00 | 0.00 | 0.00 | 58 | 947.0 | |
| 20260503193336 | 60 | 0.0 | 0.0 | 0.00 | 0.00 | 0.00 | 58 | 947.0 | |
| 20260503193036 | 61 | 0.0 | 0.0 | 0.00 | 0.00 | 0.00 | 57 | 947.0 | |
| 20260503192736 | 61 | 0.0 | 0.0 | 0.00 | 0.00 | 0.00 | 57 | 947.0 | |
| 20260503192436 | 61 | 0.0 | 0.0 | 0.00 | 0.00 | 0.00 | 57 | 947.0 | |
| 20260503192136 | 61 | 0.0 | 0.0 | 0.00 | 0.00 | 0.00 | 57 | 947.0 | |
| 20260503191835 | 61 | 0.0 | 0.0 | 0.00 | 0.00 | 0.00 | 57 | 947.0 | |
| 20260503191236 | 62 | 0.0 | 0.0 | 0.00 | 0.00 | 0.00 | 57 | 947.0 | |
| 20260503190935 | 62 | 0.0 | 0.0 | 0.00 | 0.00 | 0.00 | 57 | 947.0 | |
| 20260503190636 | 62 | 0.0 | 0.0 | 0.00 | 0.00 | 0.00 | 57 | 947.0 | |
| 20260503190336 | 62 | 0.0 | 0.0 | 0.00 | 0.00 | 0.00 | 56 | 946.0 | |
| 20260503190036 | 62 | 0.0 | 0.0 | 0.00 | 0.00 | 0.00 | 56 | 946.9 | |
| 20260503185735 | 63 | 0.0 | 0.0 | 0.00 | 0.00 | 0.00 | 55 | 946.0 | |
| 20260503185436 | 64 | 0.0 | 0.0 | 0.00 | 0.00 | 0.00 | 51 | 946.0 | |
| 20260503185135 | 64 | 0.0 | 0.0 | 0.00 | 0.00 | 0.00 | 51 | 946.0 | |
| 20260503184836 | 64 | 0.0 | 0.0 | 0.00 | 0.00 | 0.00 | 51 | 946.0 | |
| 20260503184536 | 64 | 0.0 | 0.0 | 0.00 | 0.00 | 0.00 | 50 | 946.0 | |
| 20260503184235 | 64 | 0.0 | 0.0 | 0.00 | 0.00 | 0.00 | 50 | 946.0 | |
| 20260503183336 | 65 | 0.0 | 0.0 | 0.00 | 0.00 | 0.00 | 48 | 946.0 | |
| 20260503183036 | 65 | 0.0 | 0.0 | 0.00 | 0.00 | 0.00 | 48 | 946.0 | |
| 20260503182736 | 65 | 0.0 | 0.0 | 0.00 | 0.00 | 0.00 | 48 | 946.0 | |
| 20260503182436 | 65 | 0.0 | 0.0 | 0.00 | 0.00 | 0.00 | 48 | 946.0 | |
| 20260503182136 | 65 | 0.0 | 0.0 | 0.00 | 0.00 | 0.00 | 46 | 946.0 | |
| 20260503181536 | 65 | 0.0 | 0.0 | 0.00 | 0.00 | 0.00 | 46 | 946.0 | |
| 20260503181236 | 65 | 0.0 | 0.0 | 0.00 | 0.00 | 0.00 | 46 | 946.0 | |
| 20260503180935 | 65 | 0.0 | 0.0 | 0.00 | 0.00 | 0.00 | 46 | 946.0 | |
| 20260503180636 | 65 | 0.0 | 0.0 | 0.00 | 0.00 | 0.00 | 46 | 946.0 | |
| 20260503180036 | 65 | 0.0 | 0.0 | 0.00 | 0.00 | 0.00 | 46 | 946.0 | |
| 20260503175736 | 66 | 0.0 | 0.0 | 0.00 | 0.00 | 0.00 | 46 | 946.0 | |
| 20260503175436 | 66 | 0.0 | 0.0 | 0.00 | 0.00 | 0.00 | 46 | 946.0 | |
| 20260503175136 | 67 | 0.0 | 0.0 | 0.00 | 0.00 | 0.00 | 48 | 946.0 | |
| 20260503174835 | 67 | 0.0 | 0.0 | 0.00 | 0.00 | 0.00 | 48 | 946.0 | |
| 20260503174536 | 67 | 0.0 | 0.0 | 0.00 | 0.00 | 0.00 | 48 | 946.0 | |
| 20260503173936 | 67 | 0.0 | 0.0 | 0.00 | 0.00 | 0.00 | 48 | 946.0 | |
| 20260503173636 | 67 | 0.0 | 0.0 | 0.00 | 0.00 | 0.00 | 48 | 946.0 | |
| 20260503173336 | 67 | 0.0 | 0.0 | 0.00 | 0.00 | 0.00 | 48 | 946.0 | |
| 20260503173036 | 67 | 0.0 | 0.0 | 0.00 | 0.00 | 0.00 | 48 | 946.0 | |
| 20260503172736 | 67 | 0.0 | 0.0 | 0.00 | 0.00 | 0.00 | 48 | 946.0 | |
| 20260503172435 | 67 | 0.0 | 0.0 | 0.00 | 0.00 | 0.00 | 48 | 946.0 | |
| 20260503172135 | 67 | 0.0 | 0.0 | 0.00 | 0.00 | 0.00 | 48 | 946.0 | |
| 20260503171836 | 67 | 0.0 | 0.0 | 0.00 | 0.00 | 0.00 | 48 | 946.0 | |
| 20260503171535 | 67 | 0.0 | 0.0 | 0.00 | 0.00 | 0.00 | 48 | 946.0 | |
| 20260503171236 | 66 | 0.0 | 0.0 | 0.00 | 0.00 | 0.00 | 49 | 946.0 | |
| 20260503170936 | 66 | 0.0 | 0.0 | 0.00 | 0.00 | 0.00 | 49 | 946.0 | |
| 20260503170635 | 66 | 0.0 | 0.0 | 0.00 | 0.00 | 0.00 | 49 | 946.0 | |
| 20260503170335 | 66 | 0.0 | 0.0 | 0.00 | 0.00 | 0.00 | 50 | 945.0 | |
| 20260503150936 | 67 | 0.0 | 0.0 | 0.00 | 0.00 | 0.00 | 53 | 946.0 | |
| 20260503131236 | 66 | 0.0 | 0.0 | 0.00 | 0.00 | 0.00 | 60 | 947.0 | |
| 20260503130936 | 66 | 0.0 | 0.0 | 0.00 | 0.00 | 0.00 | 60 | 947.0 | |
| 20260503130636 | 65 | 0.0 | 0.0 | 0.00 | 0.00 | 0.00 | 56 | 947.0 | |
| 20260503130335 | 65 | 0.0 | 0.0 | 0.00 | 0.00 | 0.00 | 56 | 947.0 | |
| 20260503110636 | 69 | 0.0 | 0.0 | 0.00 | 0.00 | 0.00 | 54 | 948.0 | |
| 20260503110336 | 69 | 0.0 | 0.0 | 0.00 | 0.00 | 0.00 | 54 | 948.0 | |
| 20260503090335 | 69 | 0.0 | 0.0 | 0.00 | 0.00 | 0.00 | 54 | 948.0 | |
| 20260503081536 | 60 | 0.0 | 0.0 | 0.00 | 0.00 | 0.00 | 72 | 949.0 | |
| 20260503081235 | 59 | 0.0 | 0.0 | 0.00 | 0.00 | 0.00 | 74 | 949.0 | |
| 20260503080936 | 59 | 0.0 | 0.0 | 0.00 | 0.00 | 0.00 | 74 | 949.0 | |
| 20260503080636 | 59 | 0.0 | 0.0 | 0.00 | 0.00 | 0.00 | 74 | 949.0 | |
| 20260503080336 | 59 | 0.0 | 0.0 | 0.00 | 0.00 | 0.00 | 74 | 949.0 | |
| 20260503072736 | 58 | 0.0 | 0.0 | 0.00 | 0.00 | 0.00 | 77 | 949.0 | |
| 20260503072436 | 58 | 0.0 | 0.0 | 0.00 | 0.00 | 0.00 | 77 | 949.0 | |
| 20260503071836 | 57 | 0.0 | 0.0 | 0.00 | 0.00 | 0.00 | 77 | 949.0 | |
| 20260503071235 | 57 | 0.0 | 0.0 | 0.00 | 0.00 | 0.00 | 77 | 949.0 | |
| 20260503070936 | 57 | 0.0 | 0.0 | 0.00 | 0.00 | 0.00 | 77 | 949.0 | |
| 20260503070636 | 57 | 0.0 | 0.0 | 0.00 | 0.00 | 0.00 | 77 | 949.0 | |
| 20260503070335 | 57 | 0.0 | 0.0 | 0.00 | 0.00 | 0.00 | 77 | 949.0 | |
| 20260503060336 | 56 | 0.0 | 0.0 | 0.00 | 0.00 | 0.00 | 78 | 949.0 | |
| 20260503054536 | 54 | 0.0 | 0.0 | 0.00 | 0.00 | 0.00 | 80 | 949.0 | |
| 20260503053935 | 54 | 0.0 | 0.0 | 0.00 | 0.00 | 0.00 | 80 | 949.0 | |
| 20260503053335 | 54 | 0.0 | 0.0 | 0.00 | 0.00 | 0.00 | 80 | 949.0 | |
| 20260503052736 | 54 | 0.0 | 0.0 | 0.00 | 0.00 | 0.00 | 80 | 949.0 | |
| 20260503052436 | 55 | 0.0 | 0.0 | 0.00 | 0.00 | 0.00 | 78 | 949.0 | |
| 20260503052136 | 55 | 0.0 | 0.0 | 0.00 | 0.00 | 0.00 | 78 | 949.0 | |
| 20260503051836 | 55 | 0.0 | 0.0 | 0.00 | 0.00 | 0.00 | 77 | 949.0 | |
| 20260503051536 | 55 | 0.0 | 0.0 | 0.00 | 0.00 | 0.00 | 77 | 949.0 | |
| 20260503051235 | 55 | 0.0 | 0.0 | 0.00 | 0.00 | 0.00 | 77 | 949.0 | |
| 20260503050936 | 56 | 0.0 | 0.0 | 0.00 | 0.00 | 0.00 | 76 | 949.1 | |
| 20260503050036 | 56 | 0.0 | 0.0 | 0.00 | 0.00 | 0.00 | 76 | 949.1 | |
| 20260503045736 | 56 | 0.0 | 0.0 | 0.00 | 0.00 | 0.00 | 76 | 949.0 | |
| 20260503045135 | 56 | 0.0 | 0.0 | 0.00 | 0.00 | 0.00 | 76 | 949.0 | |
| 20260503044836 | 56 | 0.0 | 0.0 | 0.00 | 0.00 | 0.00 | 76 | 949.0 | |
| 20260503044535 | 56 | 0.0 | 0.0 | 0.00 | 0.00 | 0.00 | 76 | 949.0 | |
| 20260503044236 | 56 | 0.0 | 0.0 | 0.00 | 0.00 | 0.00 | 76 | 949.0 | |
| 20260503043936 | 56 | 0.0 | 0.0 | 0.00 | 0.00 | 0.00 | 76 | 949.0 | |
| 20260503043636 | 56 | 0.0 | 0.0 | 0.00 | 0.00 | 0.00 | 76 | 949.0 | |
| 20260503043336 | 56 | 0.0 | 0.0 | 0.00 | 0.00 | 0.00 | 76 | 949.0 | |
| 20260503043036 | 56 | 0.0 | 0.0 | 0.00 | 0.00 | 0.00 | 76 | 949.0 | |
| 20260503042735 | 56 | 0.0 | 0.0 | 0.00 | 0.00 | 0.00 | 76 | 949.0 | |
| 20260503042435 | 56 | 0.0 | 0.0 | 0.00 | 0.00 | 0.00 | 75 | 949.4 | |
| 20260503042135 | 56 | 0.0 | 0.0 | 0.00 | 0.00 | 0.00 | 75 | 949.4 | |
| 20260503041836 | 56 | 0.0 | 0.0 | 0.00 | 0.00 | 0.00 | 75 | 949.4 | |
| 20260503041536 | 56 | 0.0 | 0.0 | 0.00 | 0.00 | 0.00 | 75 | 949.4 | |
| 20260503041236 | 56 | 0.0 | 0.0 | 0.00 | 0.00 | 0.00 | 75 | 949.4 | |
| 20260503040936 | 56 | 0.0 | 0.0 | 0.00 | 0.00 | 0.00 | 75 | 949.4 | |
| 20260503040636 | 56 | 0.0 | 0.0 | 0.00 | 0.00 | 0.00 | 75 | 949.4 | |
| 20260503040336 | 56 | 0.0 | 0.0 | 0.00 | 0.00 | 0.00 | 77 | 949.0 | |
| 20260503035736 | 56 | 0.0 | 0.0 | 0.00 | 0.00 | 0.00 | 77 | 949.0 | |
| 20260503035436 | 56 | 0.0 | 0.0 | 0.00 | 0.00 | 0.00 | 77 | 949.0 | |
| 20260503035136 | 56 | 0.0 | 0.0 | 0.00 | 0.00 | 0.00 | 77 | 949.0 | |
| 20260503034836 | 56 | 0.0 | 0.0 | 0.00 | 0.00 | 0.00 | 77 | 949.0 | |
| 20260503034536 | 56 | 0.0 | 0.0 | 0.00 | 0.00 | 0.00 | 77 | 949.0 | |
| 20260503033936 | 56 | 0.0 | 0.0 | 0.00 | 0.00 | 0.00 | 77 | 949.0 | |
| 20260503033636 | 56 | 0.0 | 0.0 | 0.00 | 0.00 | 0.00 | 77 | 949.0 | |
| 20260503033336 | 57 | 0.0 | 0.0 | 0.00 | 0.00 | 0.00 | 76 | 949.6 | |
| 20260503033036 | 57 | 0.0 | 0.0 | 0.00 | 0.00 | 0.00 | 76 | 949.6 | |
| 20260503032736 | 57 | 0.0 | 0.0 | 0.00 | 0.00 | 0.00 | 76 | 949.6 | |
| 20260503032436 | 57 | 0.0 | 0.0 | 0.00 | 0.00 | 0.00 | 76 | 949.6 | |
| 20260503032136 | 57 | 0.0 | 0.0 | 0.00 | 0.00 | 0.00 | 76 | 949.6 | |
| 20260503031836 | 57 | 0.0 | 0.0 | 0.00 | 0.00 | 0.00 | 76 | 949.6 | |
| 20260503031536 | 57 | 0.0 | 0.0 | 0.00 | 0.00 | 0.00 | 76 | 949.6 | |
| 20260503031235 | 57 | 0.0 | 0.0 | 0.00 | 0.00 | 0.00 | 76 | 949.6 | |
| 20260503030936 | 57 | 0.0 | 0.0 | 0.00 | 0.00 | 0.00 | 76 | 949.0 | |
| 20260503030644 | 57 | 0.0 | 0.0 | 0.00 | 0.00 | 0.00 | 76 | 949.0 | |
| 20260503030336 | 57 | 0.0 | 0.0 | 0.00 | 0.00 | 0.00 | 76 | 949.0 | |
| 20260503030036 | 57 | 0.0 | 0.0 | 0.00 | 0.00 | 0.00 | 76 | 949.0 | |
| 20260503025435 | 57 | 0.0 | 0.0 | 0.00 | 0.00 | 0.00 | 76 | 949.0 | |
| 20260503025135 | 57 | 0.0 | 0.0 | 0.00 | 0.00 | 0.00 | 76 | 949.0 | |
| 20260503024836 | 57 | 0.0 | 0.0 | 0.00 | 0.00 | 0.00 | 76 | 949.0 | |
| 20260503024536 | 57 | 0.0 | 0.0 | 0.00 | 0.00 | 0.00 | 76 | 949.0 | |
| 20260503024235 | 57 | 0.0 | 0.0 | 0.00 | 0.00 | 0.00 | 76 | 949.9 | |
| 20260503023936 | 57 | 0.0 | 0.0 | 0.00 | 0.00 | 0.00 | 76 | 949.9 | |
| 20260503023635 | 57 | 0.0 | 0.0 | 0.00 | 0.00 | 0.00 | 76 | 949.9 | |
| 20260503023036 | 57 | 0.0 | 0.0 | 0.00 | 0.00 | 0.00 | 76 | 949.9 | |
| 20260503022736 | 57 | 0.0 | 0.0 | 0.00 | 0.00 | 0.00 | 76 | 949.9 | |
| 20260503022435 | 57 | 0.0 | 0.0 | 0.00 | 0.00 | 0.00 | 76 | 949.9 | |
| 20260503021836 | 57 | 0.0 | 0.0 | 0.00 | 0.00 | 0.00 | 76 | 949.9 | |
| 20260503021536 | 57 | 0.0 | 0.0 | 0.00 | 0.00 | 0.00 | 76 | 949.9 | |
| 20260503021235 | 57 | 0.0 | 0.0 | 0.00 | 0.00 | 0.00 | 75 | 949.0 | |
| 20260503020935 | 57 | 0.0 | 0.0 | 0.00 | 0.00 | 0.00 | 75 | 949.0 | |
| 20260503020635 | 57 | 0.0 | 0.0 | 0.00 | 0.00 | 0.00 | 75 | 949.0 | |
| 20260503020336 | 57 | 0.0 | 0.0 | 0.00 | 0.00 | 0.00 | 75 | 949.0 | |
| 20260503020036 | 58 | 0.0 | 0.0 | 0.00 | 0.00 | 0.00 | 75 | 950.1 | |
| 20260503015735 | 58 | 0.0 | 0.0 | 0.00 | 0.00 | 0.00 | 75 | 950.1 | |
| 20260503015436 | 58 | 0.0 | 0.0 | 0.00 | 0.00 | 0.00 | 75 | 950.1 | |
| 20260503015136 | 58 | 0.0 | 0.0 | 0.00 | 0.00 | 0.00 | 75 | 950.1 | |
| 20260503014836 | 58 | 0.0 | 0.0 | 0.00 | 0.00 | 0.00 | 75 | 950.1 | |
| 20260503014536 | 58 | 0.0 | 0.0 | 0.00 | 0.00 | 0.00 | 75 | 950.1 | |
| 20260503014236 | 58 | 0.0 | 0.0 | 0.00 | 0.00 | 0.00 | 75 | 950.1 | |
| 20260503013635 | 58 | 0.0 | 0.0 | 0.00 | 0.00 | 0.00 | 75 | 950.1 | |
| 20260503013335 | 58 | 0.0 | 0.0 | 0.00 | 0.00 | 0.00 | 75 | 950.1 | |
| 20260503013036 | 58 | 0.0 | 0.0 | 0.00 | 0.00 | 0.00 | 75 | 950.1 | |
| 20260503012736 | 58 | 0.0 | 0.0 | 0.00 | 0.00 | 0.00 | 75 | 950.1 | |
| 20260503012436 | 58 | 0.0 | 0.0 | 0.00 | 0.00 | 0.00 | 75 | 950.1 | |
| 20260503012136 | 58 | 0.0 | 0.0 | 0.00 | 0.00 | 0.00 | 75 | 950.1 | |
| 20260503011836 | 58 | 0.0 | 0.0 | 0.00 | 0.00 | 0.00 | 75 | 950.1 | |
| 20260503011536 | 58 | 0.0 | 0.0 | 0.00 | 0.00 | 0.00 | 75 | 950.0 | |
| 20260503010936 | 58 | 0.0 | 0.0 | 0.00 | 0.00 | 0.00 | 75 | 950.0 | |
| 20260503010636 | 58 | 0.0 | 0.0 | 0.00 | 0.00 | 0.00 | 75 | 950.0 | |
| 20260503010336 | 58 | 0.0 | 0.0 | 0.00 | 0.00 | 0.00 | 75 | 950.0 | |
| 20260503010036 | 58 | 0.0 | 0.0 | 0.00 | 0.00 | 0.00 | 75 | 950.0 | |
| 20260503005735 | 58 | 0.0 | 0.0 | 0.00 | 0.00 | 0.00 | 75 | 950.0 | |
| 20260503005435 | 58 | 0.0 | 0.0 | 0.00 | 0.00 | 0.00 | 75 | 950.0 | |
| 20260503005136 | 57 | 0.0 | 0.0 | 0.00 | 0.00 | 0.00 | 76 | 950.6 | |
| 20260503004835 | 57 | 0.0 | 0.0 | 0.00 | 0.00 | 0.00 | 76 | 950.6 | |
| 20260503004536 | 57 | 0.0 | 0.0 | 0.00 | 0.00 | 0.00 | 76 | 950.6 | |
| 20260503003936 | 57 | 0.0 | 0.0 | 0.00 | 0.00 | 0.00 | 76 | 950.6 | |
| 20260503003635 | 57 | 0.0 | 0.0 | 0.00 | 0.00 | 0.00 | 76 | 950.6 | |
| 20260503003036 | 57 | 0.0 | 0.0 | 0.00 | 0.00 | 0.00 | 76 | 950.6 | |
| 20260503002736 | 57 | 0.0 | 0.0 | 0.00 | 0.00 | 0.00 | 76 | 950.6 | |
| 20260503002435 | 57 | 0.0 | 0.0 | 0.00 | 0.00 | 0.00 | 76 | 950.0 | |
| 20260503001836 | 57 | 0.0 | 0.0 | 0.00 | 0.00 | 0.00 | 76 | 950.0 | |
| 20260503001536 | 58 | 0.0 | 0.0 | 0.00 | 0.00 | 0.00 | 74 | 950.8 | |
| 20260503001236 | 58 | 0.0 | 0.0 | 0.00 | 0.00 | 0.00 | 74 | 950.8 | |
| 20260503000935 | 58 | 0.0 | 0.0 | 0.00 | 0.00 | 0.00 | 74 | 950.8 | |
| 20260503000635 | 58 | 0.0 | 0.0 | 0.00 | 0.00 | 0.00 | 74 | 950.8 |